EW5071 Weather Reports


Display with metric or nautical units.
time (UTC)temp
F
wind
direction
speed
MPH
gust
MPH
rain 1hr
in
rain 24hr
in
rain mn
in
humidity
%
barometer
mb
20260504034501 69 357 13.0 20.0 0.00 0.24 0.24 51 1008.5
20260504033101 69 344 11.0 20.0 0.00 0.24 0.24 50 1008.6
20260504031502 69 26 8.0 15.0 0.00 0.24 0.24 50 1008.6
20260504030104 69 319 12.0 19.0 0.00 0.24 0.24 52 1008.8
20260504024502 68 4 8.0 16.0 0.00 0.24 0.24 53 1009.1
20260504023101 68 52 5.0 14.0 0.00 0.24 0.24 55 1009.2
20260504021502 67 339 12.0 17.0 0.00 0.24 0.24 56 1009.7
20260504020108 67 334 11.0 19.0 0.00 0.24 0.24 55 1009.9
20260504014505 67 14 9.0 15.0 0.00 0.24 0.24 55 1010.1
20260504013113 66 329 8.0 13.0 0.00 0.24 0.24 60 1010.5
20260504011502 66 325 11.0 19.0 0.00 0.24 0.24 58 1010.8
20260504010001 66 352 10.0 15.0 0.00 0.24 0.24 61 1011.0
20260504004601 64 350 9.0 14.0 0.00 0.24 0.24 64 1011.0
20260504003001 63 317 11.0 16.0 0.00 0.24 0.24 64 1011.1
20260504001612 63 309 11.0 17.0 0.00 0.24 0.24 66 1011.0
20260504000002 62 312 9.0 13.0 0.00 0.24 0.24 71 1011.0
20260503234602 61 349 7.0 12.0 0.00 0.24 0.24 74 1011.0
20260503233002 59 310 3.0 9.0 0.00 0.24 0.24 80 1011.0
20260503231602 58 327 6.0 9.0 0.00 0.24 0.24 86 1011.2
20260503230002 57 325 4.0 11.0 0.00 0.24 0.24 92 1011.3
20260503224601 56 344 6.0 10.0 0.00 0.24 0.24 94 1011.5
20260503223001 56 302 4.0 7.0 0.00 0.24 0.24 95 1011.7
20260503221601 54 292 3.0 7.0 0.00 0.24 0.24 95 1011.4
20260503220006 53 304 1.0 3.0 0.00 0.24 0.24 94 1011.3
20260503214601 53 300 0.0 1.0 0.00 0.24 0.24 94 1011.1
20260503213001 53 300 1.0 4.0 0.00 0.24 0.24 94 1010.8
20260503211500 54 9 2.0 4.0 0.00 0.24 0.24 94 1010.5
20260503210104 55 297 3.0 5.0 0.00 0.24 0.24 94 1010.2
20260503204504 56 319 2.0 4.0 0.00 0.24 0.24 94 1010.0
20260503203115 56 324 4.0 8.0 0.00 0.24 0.24 94 1009.9
20260503201501 57 356 1.0 2.0 0.00 0.24 0.24 94 1010.0
20260503200004 57 358 0.0 2.0 0.00 0.24 0.24 94 1009.8
20260503194601 57 288 0.0 2.0 0.00 0.24 0.24 94 1009.9
20260503193001 57 288 0.0 1.0 0.00 0.24 0.24 94 1009.9
20260503191607 57 287 0.0 2.0 0.01 0.24 0.24 94 1009.8
20260503184502 57 321 0.0 3.0 0.03 0.24 0.24 94 1009.6
20260503183108 57 321 2.0 4.0 0.03 0.24 0.24 94 1009.4
20260503181502 57 21 0.0 4.0 0.02 0.24 0.23 94 1009.3
20260503180103 57 300 0.0 2.0 0.01 0.22 0.21 94 1009.5
20260503174505 57 283 1.0 5.0 0.00 0.21 0.20 94 1009.7
20260503173132 57 102 0.0 5.0 0.00 0.21 0.20 94 1009.5
20260503171503 57 173 1.0 4.0 0.00 0.21 0.20 93 1009.7
20260503081604 70 16 5.0 13.0 0.00 0.00 0.00 67 1009.3
20260503071505 70 15 2.0 10.0 0.00 0.00 0.00 66 1009.1
20260503070115 70 309 3.0 7.0 0.00 0.00 0.00 66 1009.2
20260503054603 72 341 11.0 19.0 0.00 0.00 0.00 63 1009.7
20260503053002 73 4 7.0 15.0 0.00 0.00 0.00 63 1010.0
20260503051602 73 304 9.0 24.0 0.00 0.00 0.00 62 1010.1
20260503050104 73 306 10.0 22.0 0.00 0.00 0.00 62 1010.3
20260503044501 73 342 12.0 24.0 0.00 0.00 0.00 62 1010.7
20260503043102 72 317 8.0 16.0 0.00 0.00 0.00 63 1010.8
20260503041502 73 331 7.0 16.0 0.00 0.00 0.00 63 1010.5
20260503040103 73 339 12.0 21.0 0.00 0.00 0.00 61 1010.4